Location: Unspecified
(35.6961°N, 0.0000°E)
Time: 02:51:18
(UTC+00:00)

S-56A Canister/Altair - Pass Details

Date: 04 June 2019
Orbit: 633 x 2499 km, 38.9° (Epoch: 18 June)

Event Time Altitude Azimuth Distance (km) Brightness Sun altitude
Rises 01:57:12 0° 287° (WNW) 3,206 - -25.5°
Reaches altitude 10° 01:59:18 10° 287° (WNW) 2,412 - -25.2°
Exits shadow 02:00:34 19° 286° (WNW) 1,955 9.4 -25.1°
Maximum altitude 02:04:56 85° 200° (SSW) 1,048 8.0 -24.6°
Drops below altitude 10° 02:13:29 10° 112° (ESE) 3,567 11.0 -23.7°
Sets 02:17:11 0° 112° (ESE) 4,857 11.8 -23.3°
